Year,Month,Day,Hour,Minute,Value (Times are PST for temperature in C)
2010,03,23,00,00,3.30
2010,03,23,00,01,3.30
2010,03,23,00,02,3.40
2010,03,23,00,03,3.50
2010,03,23,00,04,3.60
2010,03,23,00,05,3.80
2010,03,23,00,06,3.90
2010,03,23,00,07,4.00
2010,03,23,00,08,4.10
2010,03,23,00,09,4.20
2010,03,23,00,10,4.30
2010,03,23,00,11,4.50
2010,03,23,00,12,4.60
2010,03,23,00,13,4.70
2010,03,23,00,14,4.70
2010,03,23,00,15,4.70
2010,03,23,00,16,4.80
2010,03,23,00,17,4.90
2010,03,23,00,18,5.00
2010,03,23,00,19,5.10
2010,03,23,00,20,5.10
2010,03,23,00,21,5.00
2010,03,23,00,22,5.00
2010,03,23,00,23,4.90
2010,03,23,00,24,4.90
2010,03,23,00,25,4.80
2010,03,23,00,26,4.70
2010,03,23,00,27,4.70
2010,03,23,00,28,4.70
2010,03,23,00,29,4.70
2010,03,23,00,30,4.60
2010,03,23,00,31,4.60
2010,03,23,00,32,4.60
2010,03,23,00,33,4.60
2010,03,23,00,34,4.50
2010,03,23,00,35,4.50
2010,03,23,00,36,4.40
2010,03,23,00,37,4.40
2010,03,23,00,38,4.30
2010,03,23,00,39,4.30
2010,03,23,00,40,4.30
2010,03,23,00,41,4.30
2010,03,23,00,42,4.30
2010,03,23,00,43,4.30
2010,03,23,00,44,4.30
2010,03,23,00,45,4.30
2010,03,23,00,46,4.30
2010,03,23,00,47,4.30
2010,03,23,00,48,4.30
2010,03,23,00,49,4.40
2010,03,23,00,50,4.40
2010,03,23,00,51,4.40
2010,03,23,00,52,4.40
2010,03,23,00,53,4.30
2010,03,23,00,54,4.30
2010,03,23,00,55,4.20
2010,03,23,00,56,4.20
2010,03,23,00,57,4.10
2010,03,23,00,58,4.10
2010,03,23,00,59,4.10
2010,03,23,01,00,4.00
2010,03,23,01,01,4.00
2010,03,23,01,02,3.90
2010,03,23,01,03,3.90
2010,03,23,01,04,3.90
2010,03,23,01,05,3.90
2010,03,23,01,06,3.90
2010,03,23,01,07,3.90
2010,03,23,01,08,3.80
2010,03,23,01,09,3.80
2010,03,23,01,10,3.80
2010,03,23,01,11,3.80
2010,03,23,01,12,3.80
2010,03,23,01,13,3.80
2010,03,23,01,14,3.80
2010,03,23,01,15,3.90
2010,03,23,01,16,4.00
2010,03,23,01,17,4.00
2010,03,23,01,18,4.10
2010,03,23,01,19,4.10
2010,03,23,01,20,4.10
2010,03,23,01,21,4.10
2010,03,23,01,22,4.10
2010,03,23,01,23,4.00
2010,03,23,01,24,4.00
2010,03,23,01,25,3.90
2010,03,23,01,26,3.90
2010,03,23,01,27,3.90
2010,03,23,01,28,3.90
2010,03,23,01,29,3.80
2010,03,23,01,30,3.80
2010,03,23,01,31,3.80
2010,03,23,01,32,3.70
2010,03,23,01,33,3.70
2010,03,23,01,34,3.70
2010,03,23,01,35,3.70
2010,03,23,01,36,3.60
2010,03,23,01,37,3.60
2010,03,23,01,38,3.60
2010,03,23,01,39,3.60
2010,03,23,01,40,3.60
2010,03,23,01,41,3.60
2010,03,23,01,42,3.60
2010,03,23,01,43,3.50
2010,03,23,01,44,3.50
2010,03,23,01,45,3.50
2010,03,23,01,46,3.50
2010,03,23,01,47,3.50
2010,03,23,01,48,3.50
2010,03,23,01,49,3.50
2010,03,23,01,50,3.50
2010,03,23,01,51,3.50
2010,03,23,01,52,3.50
2010,03,23,01,53,3.50
2010,03,23,01,54,3.50
2010,03,23,01,55,3.50
2010,03,23,01,56,3.50
2010,03,23,01,57,3.50
2010,03,23,01,58,3.50
2010,03,23,01,59,3.50
2010,03,23,02,00,3.50
2010,03,23,02,01,3.50
2010,03,23,02,02,3.50
2010,03,23,02,03,3.50
2010,03,23,02,04,3.50
2010,03,23,02,05,3.50
2010,03,23,02,06,3.50
2010,03,23,02,07,3.50
2010,03,23,02,08,3.40
2010,03,23,02,09,3.40
2010,03,23,02,10,3.40
2010,03,23,02,11,3.40
2010,03,23,02,12,3.40
2010,03,23,02,13,3.30
2010,03,23,02,14,3.30
2010,03,23,02,15,3.30
2010,03,23,02,16,3.30
2010,03,23,02,17,3.20
2010,03,23,02,18,3.20
2010,03,23,02,19,3.20
2010,03,23,02,20,3.20
2010,03,23,02,21,3.20
2010,03,23,02,22,3.10
2010,03,23,02,23,3.10
2010,03,23,02,24,3.10
2010,03,23,02,25,3.10
2010,03,23,02,26,3.00
2010,03,23,02,27,3.00
2010,03,23,02,28,3.00
2010,03,23,02,29,3.00
2010,03,23,02,30,3.00
2010,03,23,02,31,2.90
2010,03,23,02,32,2.90
2010,03,23,02,33,2.90
2010,03,23,02,34,2.90
2010,03,23,02,35,2.90
2010,03,23,02,36,2.90
2010,03,23,02,37,2.80
2010,03,23,02,38,2.80
2010,03,23,02,39,2.80
2010,03,23,02,40,2.80
2010,03,23,02,41,2.80
2010,03,23,02,42,2.80
2010,03,23,02,43,2.80
2010,03,23,02,44,2.80
2010,03,23,02,45,2.80
2010,03,23,02,46,2.80
2010,03,23,02,47,2.80
2010,03,23,02,48,2.70
2010,03,23,02,49,2.70
2010,03,23,02,50,2.70
2010,03,23,02,51,2.70
2010,03,23,02,52,2.70
2010,03,23,02,53,2.70
2010,03,23,02,54,2.70
2010,03,23,02,55,2.70
2010,03,23,02,56,2.70
2010,03,23,02,57,2.60
2010,03,23,02,58,2.60
2010,03,23,02,59,2.60
2010,03,23,03,00,2.60
2010,03,23,03,01,2.60
2010,03,23,03,02,2.60
2010,03,23,03,03,2.60
2010,03,23,03,04,2.60
2010,03,23,03,05,2.60
2010,03,23,03,06,2.50
2010,03,23,03,07,2.50
2010,03,23,03,08,2.50
2010,03,23,03,09,2.40
2010,03,23,03,10,2.40
2010,03,23,03,11,2.40
2010,03,23,03,12,2.40
2010,03,23,03,13,2.40
2010,03,23,03,14,2.40
2010,03,23,03,15,2.30
2010,03,23,03,16,2.30
2010,03,23,03,17,2.30
2010,03,23,03,18,2.30
2010,03,23,03,19,2.30
2010,03,23,03,20,2.30
2010,03,23,03,21,2.20
2010,03,23,03,22,2.20
2010,03,23,03,23,2.20
2010,03,23,03,24,2.20
2010,03,23,03,25,2.20
2010,03,23,03,26,2.10
2010,03,23,03,27,2.10
2010,03,23,03,28,2.10
2010,03,23,03,29,2.10
2010,03,23,03,30,2.10
2010,03,23,03,31,2.00
2010,03,23,03,32,2.00
2010,03,23,03,33,2.00
2010,03,23,03,34,1.90
2010,03,23,03,35,1.90
2010,03,23,03,36,1.90
2010,03,23,03,37,1.90
2010,03,23,03,38,1.90
2010,03,23,03,39,1.90
2010,03,23,03,40,1.90
2010,03,23,03,41,1.90
2010,03,23,03,42,1.80
2010,03,23,03,43,1.80
2010,03,23,03,44,1.80
2010,03,23,03,45,1.80
2010,03,23,03,46,1.80
2010,03,23,03,47,1.80
2010,03,23,03,48,1.80
2010,03,23,03,49,1.80
2010,03,23,03,50,1.70
2010,03,23,03,51,1.70
2010,03,23,03,52,1.70
2010,03,23,03,53,1.70
2010,03,23,03,54,1.70
2010,03,23,03,55,1.70
2010,03,23,03,56,1.70
2010,03,23,03,57,1.60
2010,03,23,03,58,1.60
2010,03,23,03,59,1.60
2010,03,23,04,00,1.60
2010,03,23,04,01,1.60
2010,03,23,04,02,1.50
2010,03,23,04,03,1.50
2010,03,23,04,04,1.40
2010,03,23,04,05,1.40
2010,03,23,04,06,1.40
2010,03,23,04,07,1.30
2010,03,23,04,08,1.30
2010,03,23,04,09,1.30
2010,03,23,04,10,1.30
2010,03,23,04,11,1.30
2010,03,23,04,12,1.30
2010,03,23,04,13,1.30
2010,03,23,04,14,1.30
2010,03,23,04,15,1.30
2010,03,23,04,16,1.30
2010,03,23,04,17,1.30
2010,03,23,04,18,1.20
2010,03,23,04,19,1.20
2010,03,23,04,20,1.20
2010,03,23,04,21,1.20
2010,03,23,04,22,1.20
2010,03,23,04,23,1.10
2010,03,23,04,24,1.10
2010,03,23,04,25,1.10
2010,03,23,04,26,1.10
2010,03,23,04,27,1.10
2010,03,23,04,28,1.10
2010,03,23,04,29,1.00
2010,03,23,04,30,1.00
2010,03,23,04,31,1.00
2010,03,23,04,32,1.00
2010,03,23,04,33,1.00
2010,03,23,04,34,1.00
2010,03,23,04,35,1.00
2010,03,23,04,36,1.00
2010,03,23,04,37,1.00
2010,03,23,04,38,1.00
2010,03,23,04,39,1.00
2010,03,23,04,40,1.00
2010,03,23,04,41,1.00
2010,03,23,04,42,1.00
2010,03,23,04,43,1.00
2010,03,23,04,44,1.00
2010,03,23,04,45,1.00
2010,03,23,04,46,1.00
2010,03,23,04,47,0.90
2010,03,23,04,48,0.90
2010,03,23,04,49,0.90
2010,03,23,04,50,0.90
2010,03,23,04,51,0.90
2010,03,23,04,52,0.90
2010,03,23,04,53,0.90
2010,03,23,04,54,0.90
2010,03,23,04,55,0.90
2010,03,23,04,56,0.90
2010,03,23,04,57,0.90
2010,03,23,04,58,0.90
2010,03,23,04,59,0.90
2010,03,23,05,00,0.90
2010,03,23,05,01,0.80
2010,03,23,05,02,0.80
2010,03,23,05,03,0.80
2010,03,23,05,05,0.80
2010,03,23,05,07,0.80
2010,03,23,05,08,0.80
2010,03,23,05,09,0.80
2010,03,23,05,10,0.80
2010,03,23,05,11,0.70
2010,03,23,05,12,0.70
2010,03,23,05,13,0.70
2010,03,23,05,14,0.70
2010,03,23,05,15,0.70
2010,03,23,05,16,0.70
2010,03,23,05,17,0.60
2010,03,23,05,18,0.60
2010,03,23,05,19,0.60
2010,03,23,05,20,0.60
2010,03,23,05,21,0.60
2010,03,23,05,22,0.60
2010,03,23,05,23,0.60
2010,03,23,05,24,0.50
2010,03,23,05,25,0.50
2010,03,23,05,26,0.50
2010,03,23,05,27,0.50
2010,03,23,05,28,0.50
2010,03,23,05,29,0.50
2010,03,23,05,30,0.50
2010,03,23,05,31,0.50
2010,03,23,05,32,0.50
2010,03,23,05,33,0.50
2010,03,23,05,34,0.50
2010,03,23,05,35,0.50
2010,03,23,05,36,0.50
2010,03,23,05,37,0.50
2010,03,23,05,38,0.50
2010,03,23,05,39,0.50
2010,03,23,05,40,0.50
2010,03,23,05,41,0.50
2010,03,23,05,42,0.50
2010,03,23,05,43,0.50
2010,03,23,05,44,0.50
2010,03,23,05,45,0.40
2010,03,23,05,46,0.40
2010,03,23,05,47,0.40
2010,03,23,05,48,0.40
2010,03,23,05,49,0.40
2010,03,23,05,50,0.40
2010,03,23,05,51,0.40
2010,03,23,05,52,0.40
2010,03,23,05,53,0.40
2010,03,23,05,54,0.40
2010,03,23,05,55,0.40
2010,03,23,05,56,0.40
2010,03,23,05,57,0.40
2010,03,23,05,58,0.30
2010,03,23,05,59,0.30
2010,03,23,06,00,0.30
2010,03,23,06,01,0.30
2010,03,23,06,02,0.30
2010,03,23,06,03,0.30
2010,03,23,06,04,0.30
2010,03,23,06,05,0.30
2010,03,23,06,06,0.30
2010,03,23,06,07,0.30
2010,03,23,06,08,0.30
2010,03,23,06,09,0.30
2010,03,23,06,10,0.30
2010,03,23,06,11,0.30
2010,03,23,06,12,0.30
2010,03,23,06,13,0.30
2010,03,23,06,14,0.30
2010,03,23,06,15,0.20
2010,03,23,06,16,0.20
2010,03,23,06,17,0.20
2010,03,23,06,18,0.20
2010,03,23,06,19,0.20
2010,03,23,06,20,0.20
2010,03,23,06,21,0.20
2010,03,23,06,22,0.20
2010,03,23,06,23,0.20
2010,03,23,06,24,0.10
2010,03,23,06,25,0.10
2010,03,23,06,26,0.10
2010,03,23,06,27,0.10
2010,03,23,06,28,0.10
2010,03,23,06,29,0.10
2010,03,23,06,30,0.20
2010,03,23,06,31,0.20
2010,03,23,06,32,0.20
2010,03,23,06,33,0.20
2010,03,23,06,34,0.20
2010,03,23,06,35,0.20
2010,03,23,06,36,0.20
2010,03,23,06,37,0.20
2010,03,23,06,38,0.20
2010,03,23,06,39,0.20
2010,03,23,06,40,0.20
2010,03,23,06,41,0.20
2010,03,23,06,42,0.20
2010,03,23,06,43,0.20
2010,03,23,06,44,0.10
2010,03,23,06,45,0.10
2010,03,23,06,46,0.10
2010,03,23,06,47,0.10
2010,03,23,06,48,0.10
2010,03,23,06,49,0.10
2010,03,23,06,50,0.10
2010,03,23,06,51,0.10
2010,03,23,06,52,0.10
2010,03,23,06,53,0.10
2010,03,23,06,54,0.10
2010,03,23,06,55,0.10
2010,03,23,06,56,0.10
2010,03,23,06,57,0.10
2010,03,23,06,58,0.10
2010,03,23,06,59,0.20
2010,03,23,07,00,0.20
2010,03,23,07,01,0.20
2010,03,23,07,02,0.20
2010,03,23,07,03,0.20
2010,03,23,07,04,0.20
2010,03,23,07,05,0.20
2010,03,23,07,06,0.20
2010,03,23,07,07,0.20
2010,03,23,07,08,0.20
2010,03,23,07,09,0.20
2010,03,23,07,10,0.20
2010,03,23,07,11,0.10
2010,03,23,07,12,0.20
2010,03,23,07,13,0.20
2010,03,23,07,14,0.20
2010,03,23,07,15,0.20
2010,03,23,07,16,0.20
2010,03,23,07,17,0.20
2010,03,23,07,18,0.20
2010,03,23,07,19,0.20
2010,03,23,07,20,0.20
2010,03,23,07,21,0.20
2010,03,23,07,22,0.20
2010,03,23,07,23,0.20
2010,03,23,07,24,0.20
2010,03,23,07,25,0.20
2010,03,23,07,26,0.20
2010,03,23,07,27,0.30
2010,03,23,07,28,0.30
2010,03,23,07,29,0.30
2010,03,23,07,30,0.30
2010,03,23,07,31,0.40
2010,03,23,07,32,0.50
2010,03,23,07,33,0.60
2010,03,23,07,34,0.60
2010,03,23,07,35,0.70
2010,03,23,07,36,0.70
2010,03,23,07,37,0.70
2010,03,23,07,38,0.70
2010,03,23,07,39,0.80
2010,03,23,07,40,0.80
2010,03,23,07,41,0.80
2010,03,23,07,42,0.90
2010,03,23,07,43,0.90
2010,03,23,07,44,1.00
2010,03,23,07,45,1.00
2010,03,23,07,46,1.00
2010,03,23,07,47,1.10
2010,03,23,07,48,1.10
2010,03,23,07,49,1.10
2010,03,23,07,50,1.20
2010,03,23,07,51,1.20
2010,03,23,07,52,1.20
2010,03,23,07,53,1.30
2010,03,23,07,54,1.30
2010,03,23,07,55,1.30
2010,03,23,07,56,1.30
2010,03,23,07,57,1.30
2010,03,23,07,58,1.30
2010,03,23,07,59,1.40
2010,03,23,08,00,1.50
2010,03,23,08,01,1.60
2010,03,23,08,02,1.70
2010,03,23,08,03,1.70
2010,03,23,08,04,1.80
2010,03,23,08,05,1.90
2010,03,23,08,06,1.90
2010,03,23,08,07,2.00
2010,03,23,08,08,2.00
2010,03,23,08,09,2.00
2010,03,23,08,10,2.10
2010,03,23,08,11,2.10
2010,03,23,08,12,2.20
2010,03,23,08,13,2.20
2010,03,23,08,14,2.20
2010,03,23,08,15,2.20
2010,03,23,08,16,2.30
2010,03,23,08,17,2.30
2010,03,23,08,18,2.40
2010,03,23,08,19,2.40
2010,03,23,08,20,2.40
2010,03,23,08,21,2.40
2010,03,23,08,22,2.50
2010,03,23,08,23,2.50
2010,03,23,08,24,2.60
2010,03,23,08,25,2.60
2010,03,23,08,26,2.60
2010,03,23,08,27,2.70
2010,03,23,08,28,2.70
2010,03,23,08,29,2.70
2010,03,23,08,30,2.80
2010,03,23,08,31,2.80
2010,03,23,08,32,2.90
2010,03,23,08,33,2.90
2010,03,23,08,34,3.00
2010,03,23,08,35,3.10
2010,03,23,08,36,3.10
2010,03,23,08,37,3.20
2010,03,23,08,38,3.30
2010,03,23,08,39,3.30
2010,03,23,08,40,3.40
2010,03,23,08,41,3.50
2010,03,23,08,42,3.50
2010,03,23,08,43,3.60
2010,03,23,08,44,3.70
2010,03,23,08,45,3.70
2010,03,23,08,46,3.80
2010,03,23,08,47,3.80
2010,03,23,08,48,3.90
2010,03,23,08,49,3.90
2010,03,23,08,50,4.00
2010,03,23,08,51,4.00
2010,03,23,08,52,4.10
2010,03,23,08,53,4.10
2010,03,23,08,54,4.10
2010,03,23,08,57,4.30
2010,03,23,08,58,4.30
2010,03,23,08,59,4.30
2010,03,23,09,00,4.40
2010,03,23,09,01,4.40
2010,03,23,09,02,4.50
2010,03,23,09,03,4.50
2010,03,23,09,04,4.60
2010,03,23,09,05,4.60
2010,03,23,09,06,4.70
2010,03,23,09,07,4.70
2010,03,23,09,08,4.80
2010,03,23,09,09,4.80
2010,03,23,09,10,4.80
2010,03,23,09,11,4.90
2010,03,23,09,12,4.90
2010,03,23,09,13,5.00
2010,03,23,09,14,5.10
2010,03,23,09,15,5.10
2010,03,23,09,16,5.10
2010,03,23,09,17,5.20
2010,03,23,09,18,5.20
2010,03,23,09,19,5.30
2010,03,23,09,20,5.40
2010,03,23,09,21,5.50
2010,03,23,09,22,5.60
2010,03,23,09,23,5.70
2010,03,23,09,24,5.80
2010,03,23,09,25,5.90
2010,03,23,09,26,6.00
2010,03,23,09,27,6.10
2010,03,23,09,28,6.20
2010,03,23,09,29,6.30
2010,03,23,09,30,6.40
2010,03,23,09,31,6.50
2010,03,23,09,32,6.60
2010,03,23,09,33,6.70
2010,03,23,09,34,6.70
2010,03,23,09,35,6.80
2010,03,23,09,36,6.80
2010,03,23,09,37,6.90
2010,03,23,09,38,6.90
2010,03,23,09,39,7.00
2010,03,23,09,40,7.10
2010,03,23,09,41,7.10
2010,03,23,09,42,7.20
2010,03,23,09,43,7.20
2010,03,23,09,44,7.20
2010,03,23,09,45,7.30
2010,03,23,09,46,7.40
2010,03,23,09,47,7.40
2010,03,23,09,48,7.50
2010,03,23,09,49,7.50
2010,03,23,09,50,7.50
2010,03,23,09,51,7.60
2010,03,23,09,52,7.60
2010,03,23,09,53,7.60
2010,03,23,09,54,7.60
2010,03,23,09,55,7.60
2010,03,23,09,56,7.60
2010,03,23,09,57,7.60
2010,03,23,09,58,7.60
2010,03,23,09,59,7.60
2010,03,23,10,00,7.60
2010,03,23,10,01,7.60
2010,03,23,10,02,7.60
2010,03,23,10,03,7.60
2010,03,23,10,04,7.60
2010,03,23,10,05,7.70
2010,03,23,10,06,7.70
2010,03,23,10,07,7.70
2010,03,23,10,08,7.80
2010,03,23,10,09,7.80
2010,03,23,10,10,7.80
2010,03,23,10,11,7.80
2010,03,23,10,12,7.80
2010,03,23,10,13,7.80
2010,03,23,10,14,7.70
2010,03,23,10,15,7.70
2010,03,23,10,16,7.70
2010,03,23,10,17,7.70
2010,03,23,10,18,7.70
2010,03,23,10,19,7.60
2010,03,23,10,20,7.60
2010,03,23,10,21,7.60
2010,03,23,10,22,7.60
2010,03,23,10,23,7.60
2010,03,23,10,24,7.60
2010,03,23,10,25,7.60
2010,03,23,10,26,7.60
2010,03,23,10,27,7.60
2010,03,23,10,28,7.70
2010,03,23,10,29,7.70
2010,03,23,10,30,7.70
2010,03,23,10,31,7.70
2010,03,23,10,32,7.70
2010,03,23,10,33,7.70
2010,03,23,10,34,7.70
2010,03,23,10,35,7.70
2010,03,23,10,36,7.80
2010,03,23,10,37,7.80
2010,03,23,10,38,7.80
2010,03,23,10,39,7.90
2010,03,23,10,40,7.90
2010,03,23,10,41,7.90
2010,03,23,10,42,8.00
2010,03,23,10,43,8.00
2010,03,23,10,44,8.00
2010,03,23,10,45,8.00
2010,03,23,10,46,8.10
2010,03,23,10,47,8.10
2010,03,23,10,48,8.10
2010,03,23,10,49,8.10
2010,03,23,10,50,8.20
2010,03,23,10,51,8.20
2010,03,23,10,52,8.30
2010,03,23,10,53,8.30
2010,03,23,10,54,8.30
2010,03,23,10,55,8.40
2010,03,23,10,56,8.40
2010,03,23,10,57,8.40
2010,03,23,10,58,8.40
2010,03,23,10,59,8.50
2010,03,23,11,00,8.50
2010,03,23,11,01,8.60
2010,03,23,11,02,8.60
2010,03,23,11,03,8.70
2010,03,23,11,04,8.70
2010,03,23,11,05,8.80
2010,03,23,11,06,8.80
2010,03,23,11,07,8.80
2010,03,23,11,08,8.80
2010,03,23,11,09,8.90
2010,03,23,11,10,8.90
2010,03,23,11,11,8.90
2010,03,23,11,12,8.90
2010,03,23,11,13,8.90
2010,03,23,11,14,8.90
2010,03,23,11,15,9.00
2010,03,23,11,16,9.00
2010,03,23,11,17,9.00
2010,03,23,11,18,9.10
2010,03,23,11,19,9.10
2010,03,23,11,20,9.00
2010,03,23,11,21,9.10
2010,03,23,11,22,9.10
2010,03,23,11,23,9.10
2010,03,23,11,24,9.00
2010,03,23,11,25,9.00
2010,03,23,11,26,9.00
2010,03,23,11,27,9.00
2010,03,23,11,28,9.00
2010,03,23,11,29,9.10
2010,03,23,11,30,9.10
2010,03,23,11,31,9.00
2010,03,23,11,32,9.00
2010,03,23,11,33,9.00
2010,03,23,11,34,9.00
2010,03,23,11,35,9.00
2010,03,23,11,36,9.00
2010,03,23,11,37,8.90
2010,03,23,11,38,8.90
2010,03,23,11,39,8.90
2010,03,23,11,40,8.90
2010,03,23,11,41,8.90
2010,03,23,11,42,8.90
2010,03,23,11,43,8.90
2010,03,23,11,44,8.90
2010,03,23,11,45,8.90
2010,03,23,11,46,8.90
2010,03,23,11,47,8.90
2010,03,23,11,48,8.90
2010,03,23,11,49,8.90
2010,03,23,11,50,8.90
2010,03,23,11,51,8.90
2010,03,23,11,52,8.90
2010,03,23,11,53,8.80
2010,03,23,11,54,8.80
2010,03,23,11,55,8.80
2010,03,23,11,56,8.80
2010,03,23,11,57,8.80
2010,03,23,11,58,8.80
2010,03,23,11,59,8.80
2010,03,23,12,00,8.80
2010,03,23,12,01,8.80
2010,03,23,12,02,8.80
2010,03,23,12,03,8.80
2010,03,23,12,04,8.70
2010,03,23,12,05,8.70
2010,03,23,12,06,8.70
2010,03,23,12,07,8.60
2010,03,23,12,08,8.60
2010,03,23,12,09,8.50
2010,03,23,12,10,8.40
2010,03,23,12,11,8.40
2010,03,23,12,12,8.30
2010,03,23,12,13,8.30
2010,03,23,12,14,8.30
2010,03,23,12,15,8.30
2010,03,23,12,16,8.30
2010,03,23,12,17,8.20
2010,03,23,12,18,8.20
2010,03,23,12,19,8.20
2010,03,23,12,20,8.20
2010,03,23,12,21,8.20
2010,03,23,12,22,8.20
2010,03,23,12,23,8.20
2010,03,23,12,24,8.30
2010,03,23,12,25,8.30
2010,03,23,12,26,8.30
2010,03,23,12,27,8.30
2010,03,23,12,28,8.30
2010,03,23,12,29,8.30
2010,03,23,12,30,8.30
2010,03,23,12,31,8.30
2010,03,23,12,32,8.30
2010,03,23,12,33,8.30
2010,03,23,12,34,8.30
2010,03,23,12,35,8.30
2010,03,23,12,36,8.30
2010,03,23,12,37,8.30
2010,03,23,12,38,8.30
2010,03,23,12,39,8.30
2010,03,23,12,40,8.30
2010,03,23,12,41,8.30
2010,03,23,12,42,8.30
2010,03,23,12,43,8.30
2010,03,23,12,44,8.20
2010,03,23,12,45,8.20
2010,03,23,12,46,8.20
2010,03,23,12,47,8.20
2010,03,23,12,48,8.20
2010,03,23,12,49,8.20
2010,03,23,12,50,8.20
2010,03,23,12,51,8.30
2010,03,23,12,52,8.30
2010,03,23,12,53,8.30
2010,03,23,12,54,8.30
2010,03,23,12,55,8.30
2010,03,23,12,56,8.30
2010,03,23,12,57,8.30
2010,03,23,12,58,8.30
2010,03,23,12,59,8.30
2010,03,23,13,00,8.30
2010,03,23,13,01,8.30
2010,03,23,13,02,8.30
2010,03,23,13,03,8.30
2010,03,23,13,04,8.30
2010,03,23,13,05,8.30
2010,03,23,13,06,8.40
2010,03,23,13,07,8.40
2010,03,23,13,08,8.40
2010,03,23,13,09,8.50
2010,03,23,13,10,8.50
2010,03,23,13,11,8.50
2010,03,23,13,12,8.50
2010,03,23,13,13,8.50
2010,03,23,13,14,8.60
2010,03,23,13,15,8.50
2010,03,23,13,16,8.50
2010,03,23,13,17,8.40
2010,03,23,13,18,8.40
2010,03,23,13,19,8.40
2010,03,23,13,20,8.40
2010,03,23,13,21,8.40
2010,03,23,13,22,8.40
2010,03,23,13,23,8.50
2010,03,23,13,24,8.50
2010,03,23,13,25,8.50
2010,03,23,13,26,8.50
2010,03,23,13,27,8.50
2010,03,23,13,28,8.60
2010,03,23,13,29,8.60
2010,03,23,13,30,8.60
2010,03,23,13,31,8.60
2010,03,23,13,32,8.60
2010,03,23,13,33,8.60
2010,03,23,13,34,8.60
2010,03,23,13,35,8.60
2010,03,23,13,36,8.60
2010,03,23,13,37,8.60
2010,03,23,13,38,8.60
2010,03,23,13,39,8.60
2010,03,23,13,40,8.60
2010,03,23,13,41,8.60
2010,03,23,13,42,8.60
2010,03,23,13,43,8.70
2010,03,23,13,44,8.70
2010,03,23,13,45,8.70
2010,03,23,13,46,8.70
2010,03,23,13,47,8.80
2010,03,23,13,48,8.80
2010,03,23,13,49,8.80
2010,03,23,13,50,8.80
2010,03,23,13,51,8.80
2010,03,23,13,52,8.80
2010,03,23,13,53,8.80
2010,03,23,13,54,8.70
2010,03,23,13,55,8.70
2010,03,23,13,56,8.70
2010,03,23,13,57,8.70
2010,03,23,13,58,8.70
2010,03,23,13,59,8.70
2010,03,23,14,00,8.70
2010,03,23,14,01,8.70
2010,03,23,14,02,8.70
2010,03,23,14,03,8.70
2010,03,23,14,04,8.70
2010,03,23,14,05,8.70
2010,03,23,14,06,8.70
2010,03,23,14,07,8.70
2010,03,23,14,08,8.70
2010,03,23,14,09,8.70
2010,03,23,14,10,8.70
2010,03,23,14,11,8.70
2010,03,23,14,12,8.70
2010,03,23,14,13,8.70
2010,03,23,14,14,8.70
2010,03,23,14,15,8.70
2010,03,23,14,16,8.70
2010,03,23,14,17,8.80
2010,03,23,14,18,8.80
2010,03,23,14,19,8.80
2010,03,23,14,20,8.80
2010,03,23,14,21,8.80
2010,03,23,14,22,8.80
2010,03,23,14,23,8.80
2010,03,23,14,24,8.90
2010,03,23,14,25,8.90
2010,03,23,14,26,8.90
2010,03,23,14,27,8.90
2010,03,23,14,28,8.90
2010,03,23,14,29,8.90
2010,03,23,14,30,8.90
2010,03,23,14,31,8.90
2010,03,23,14,32,8.90
2010,03,23,14,33,8.90
2010,03,23,14,34,8.90
2010,03,23,14,35,9.00
2010,03,23,14,36,9.00
2010,03,23,14,37,9.00
2010,03,23,14,38,9.00
2010,03,23,14,39,9.00
2010,03,23,14,40,9.10
2010,03,23,14,41,9.10
2010,03,23,14,42,9.10
2010,03,23,14,43,9.10
2010,03,23,14,44,9.10
2010,03,23,14,45,9.10
2010,03,23,14,46,9.10
2010,03,23,14,47,9.10
2010,03,23,14,48,9.10
2010,03,23,14,49,9.10
2010,03,23,14,50,9.10
2010,03,23,14,51,9.10
2010,03,23,14,52,9.10
2010,03,23,14,53,9.10
2010,03,23,14,54,9.10
2010,03,23,14,55,9.10
2010,03,23,14,56,9.10
2010,03,23,14,57,9.10
2010,03,23,14,58,9.10
2010,03,23,14,59,9.10
2010,03,23,15,00,9.10
2010,03,23,15,01,9.20
2010,03,23,15,02,9.20
2010,03,23,15,03,9.20
2010,03,23,15,04,9.20
2010,03,23,15,05,9.20
2010,03,23,15,06,9.20
2010,03,23,15,07,9.10
2010,03,23,15,08,9.20
2010,03,23,15,09,9.20
2010,03,23,15,10,9.20
2010,03,23,15,11,9.20
2010,03,23,15,12,9.20
2010,03,23,15,13,9.20
2010,03,23,15,14,9.20
2010,03,23,15,15,9.20
2010,03,23,15,16,9.20
2010,03,23,15,17,9.20
2010,03,23,15,18,9.30
2010,03,23,15,19,9.30
2010,03,23,15,20,9.30
2010,03,23,15,21,9.30
2010,03,23,15,22,9.30
2010,03,23,15,23,9.40
2010,03,23,15,24,9.40
2010,03,23,15,25,9.40
2010,03,23,15,26,9.40
2010,03,23,15,27,9.50
2010,03,23,15,28,9.50
2010,03,23,15,29,9.60
2010,03,23,15,30,9.60
2010,03,23,15,31,9.60
2010,03,23,15,32,9.70
2010,03,23,15,33,9.70
2010,03,23,15,34,9.60
2010,03,23,15,35,9.60
2010,03,23,15,36,9.60
2010,03,23,15,37,9.60
2010,03,23,15,38,9.70
2010,03,23,15,39,9.70
2010,03,23,15,40,9.70
2010,03,23,15,41,9.80
2010,03,23,15,42,9.80
2010,03,23,15,43,9.80
2010,03,23,15,44,9.80
2010,03,23,15,45,9.90
2010,03,23,15,46,9.90
2010,03,23,15,47,9.90
2010,03,23,15,48,10.00
2010,03,23,15,49,10.00
2010,03,23,15,50,10.00
2010,03,23,15,51,10.10
2010,03,23,15,52,10.10
2010,03,23,15,53,10.20
2010,03,23,15,54,10.20
2010,03,23,15,55,10.20
2010,03,23,15,56,10.20
2010,03,23,15,57,10.20
2010,03,23,15,58,10.30
2010,03,23,15,59,10.30
2010,03,23,16,00,10.30
2010,03,23,16,01,10.30
2010,03,23,16,02,10.30
2010,03,23,16,03,10.30
2010,03,23,16,04,10.30
2010,03,23,16,05,10.30
2010,03,23,16,06,10.30
2010,03,23,16,07,10.30
2010,03,23,16,08,10.30
2010,03,23,16,09,10.30
2010,03,23,16,10,10.30
2010,03,23,16,11,10.30
2010,03,23,16,12,10.30
2010,03,23,16,13,10.30
2010,03,23,16,14,10.30
2010,03,23,16,15,10.20
2010,03,23,16,16,10.20
2010,03,23,16,17,10.10
2010,03,23,16,18,10.00
2010,03,23,16,19,9.90
2010,03,23,16,20,9.90
2010,03,23,16,21,9.90
2010,03,23,16,22,9.90
2010,03,23,16,23,9.90
2010,03,23,16,24,9.90
2010,03,23,16,25,9.90
2010,03,23,16,26,9.90
2010,03,23,16,27,9.90
2010,03,23,16,28,10.00
2010,03,23,16,29,10.00
2010,03,23,16,30,10.00
2010,03,23,16,31,10.00
2010,03,23,16,32,10.00
2010,03,23,16,33,10.00
2010,03,23,16,34,10.00
2010,03,23,16,35,10.00
2010,03,23,16,36,10.00
2010,03,23,16,37,10.00
2010,03,23,16,38,10.00
2010,03,23,16,39,10.00
2010,03,23,16,40,10.00
2010,03,23,16,41,10.00
2010,03,23,16,42,10.00
2010,03,23,16,43,10.00
2010,03,23,16,44,9.90
2010,03,23,16,45,9.90
2010,03,23,16,46,9.90
2010,03,23,16,47,9.90
2010,03,23,16,48,9.90
2010,03,23,16,49,9.90
2010,03,23,16,50,9.90
2010,03,23,16,51,9.90
2010,03,23,16,52,9.90
2010,03,23,16,53,9.90
2010,03,23,16,54,9.90
2010,03,23,16,55,9.90
2010,03,23,16,56,9.90
2010,03,23,16,57,9.90
2010,03,23,16,58,9.90
2010,03,23,16,59,9.80
2010,03,23,17,00,9.80
2010,03,23,17,01,9.70
2010,03,23,17,02,9.70
2010,03,23,17,03,9.70
2010,03,23,17,04,9.70
2010,03,23,17,05,9.70
2010,03,23,17,06,9.70
2010,03,23,17,07,9.70
2010,03,23,17,08,9.70
2010,03,23,17,09,9.70
2010,03,23,17,10,9.60
2010,03,23,17,11,9.60
2010,03,23,17,12,9.60
2010,03,23,17,13,9.60
2010,03,23,17,14,9.60
2010,03,23,17,15,9.70
2010,03,23,17,16,9.70
2010,03,23,17,17,9.70
2010,03,23,17,18,9.60
2010,03,23,17,19,9.60
2010,03,23,17,20,9.70
2010,03,23,17,21,9.70
2010,03,23,17,22,9.70
2010,03,23,17,23,9.70
2010,03,23,17,24,9.70
2010,03,23,17,25,9.70
2010,03,23,17,26,9.70
2010,03,23,17,27,9.70
2010,03,23,17,28,9.70
2010,03,23,17,29,9.70
2010,03,23,17,30,9.70
2010,03,23,17,31,9.70
2010,03,23,17,32,9.70
2010,03,23,17,33,9.70
2010,03,23,17,34,9.70
2010,03,23,17,35,9.70
2010,03,23,17,36,9.70
2010,03,23,17,37,9.70
2010,03,23,17,38,9.70
2010,03,23,17,39,9.70
2010,03,23,17,40,9.70
2010,03,23,17,41,9.70
2010,03,23,17,42,9.70
2010,03,23,17,43,9.70
2010,03,23,17,44,9.70
2010,03,23,17,45,9.70
2010,03,23,17,46,9.70
2010,03,23,17,47,9.70
2010,03,23,17,48,9.60
2010,03,23,17,49,9.60
2010,03,23,17,50,9.60
2010,03,23,17,51,9.60
2010,03,23,17,52,9.60
2010,03,23,17,53,9.60
2010,03,23,17,54,9.60
2010,03,23,17,55,9.60
2010,03,23,17,56,9.60
2010,03,23,17,57,9.60
2010,03,23,17,58,9.60
2010,03,23,17,59,9.60
2010,03,23,18,00,9.60
2010,03,23,18,01,9.60
2010,03,23,18,02,9.60
2010,03,23,18,03,9.60
2010,03,23,18,04,9.60
2010,03,23,18,05,9.50
2010,03,23,18,06,9.50
2010,03,23,18,07,9.40
2010,03,23,18,08,9.40